.
WxDataArchive / Data Records for 2015-02-13
2015-02-12 February 2015 2015-02-14

Data Records for Friday, 13 February 2015

Time	Temp	Chill	HIndex	Humid	Dewpt	 Wind 	HiWind	WindDir	Rain 	Barom
-----	----	-----	------	-----	-----	------	------	-------	-----	-----
00:00	14.1	14.1	14.1	59	2.4	0	1	292	0.00	30.411 
00:05	14.1	14.1	14.1	59	2.4	0	1	292	0.00	30.411 
00:10	14.1	14.1	14.1	59	2.4	0	1	292	0.00	30.411 
00:15	14.1	14.1	14.1	60	2.8	0	1	292	0.00	30.409 
00:20	14.0	14.0	14.0	60	2.7	0	2	292	0.00	30.409 
00:25	14.0	14.0	14.0	60	2.7	0	3	292	0.00	30.409 
00:30	14.0	14.0	14.0	60	2.7	0	1	292	0.00	30.416 
00:35	14.0	14.0	14.0	59	2.3	0	2	292	0.00	30.416 
00:40	14.0	14.0	14.0	59	2.3	0	2	292	0.00	30.416 
00:45	14.0	14.0	14.0	60	2.7	0	1	292	0.00	30.418 
00:50	14.0	14.0	14.0	60	2.7	0	2	292	0.00	30.418 
00:55	14.0	14.0	14.0	60	2.7	0	3	292	0.00	30.418 
01:00	14.0	14.0	14.0	60	2.7	0	1	292	0.00	30.416 
01:05	14.0	14.0	14.0	60	2.7	0	1	292	0.00	30.416 
01:10	13.8	13.8	13.8	60	2.5	0	1	292	0.00	30.416 
01:15	13.8	13.8	13.8	60	2.5	0	1	292	0.00	30.415 
01:20	13.6	13.6	13.6	60	2.3	0	0	---	0.00	30.415 
01:25	13.6	13.6	13.6	60	2.3	0	1	292	0.00	30.415 
01:30	13.6	13.6	13.6	60	2.3	0	1	292	0.00	30.415 
01:35	13.5	13.5	13.5	60	2.2	0	2	292	0.00	30.415 
01:40	13.5	13.5	13.5	59	1.9	0	1	292	0.00	30.415 
01:45	13.5	13.5	13.5	59	1.9	0	2	292	0.00	30.411 
01:50	13.5	13.5	13.5	59	1.9	0	0	---	0.00	30.411 
01:55	13.5	13.5	13.5	59	1.9	0	1	292	0.00	30.411 
02:00	13.5	13.5	13.5	59	1.9	0	2	292	0.00	30.407 
02:05	13.5	13.5	13.5	59	1.9	0	1	292	0.00	30.407 
02:10	13.3	13.3	13.3	59	1.7	0	0	---	0.00	30.407 
02:15	13.3	13.3	13.3	59	1.7	0	1	292	0.00	30.408 
02:20	13.3	13.3	13.3	59	1.7	0	1	292	0.00	30.408 
02:25	13.3	13.3	13.3	59	1.7	0	1	292	0.00	30.408 
02:30	13.3	13.3	13.3	59	1.7	0	1	292	0.00	30.406 
02:35	13.3	13.3	13.3	60	2.0	0	1	292	0.00	30.406 
02:40	13.3	13.3	13.3	59	1.7	0	1	292	0.00	30.406 
02:45	13.3	13.3	13.3	59	1.7	0	1	292	0.00	30.405 
02:50	13.3	13.3	13.3	60	2.0	0	1	292	0.00	30.405 
02:55	13.3	13.3	13.3	60	2.0	0	1	292	0.00	30.405 
03:00	13.1	13.1	13.1	59	1.5	0	2	292	0.00	30.403 
03:05	13.1	13.1	13.1	60	1.9	0	1	292	0.00	30.403 
03:10	13.1	13.1	13.1	60	1.9	0	1	292	0.00	30.403 
03:15	12.9	12.9	12.9	60	1.7	1	3	292	0.00	30.396 
03:20	12.9	12.9	12.9	60	1.7	0	0	---	0.00	30.396 
03:25	12.9	12.9	12.9	60	1.7	0	1	292	0.00	30.396 
03:30	12.8	12.8	12.8	60	1.6	0	1	292	0.00	30.394 
03:35	12.8	12.8	12.8	60	1.6	0	1	292	0.00	30.394 
03:40	12.6	12.6	12.6	59	1.0	0	1	292	0.00	30.394 
03:45	12.6	12.6	12.6	60	1.4	0	0	---	0.00	30.388 
03:50	12.6	12.6	12.6	60	1.4	0	1	292	0.00	30.388 
03:55	12.6	12.6	12.6	60	1.4	0	1	292	0.00	30.388 
04:00	12.6	12.6	12.6	60	1.4	0	1	292	0.00	30.388 
04:05	12.4	12.4	12.4	60	1.2	0	2	292	0.00	30.388 
04:10	12.4	12.4	12.4	61	1.5	0	2	292	0.00	30.388 
04:15	12.3	12.3	12.3	62	1.8	1	2	292	0.00	30.381 
04:20	12.1	12.1	12.1	61	1.3	1	3	292	0.00	30.381 
04:25	12.1	12.1	12.1	62	1.6	0	1	292	0.00	30.381 
04:30	12.1	12.1	12.1	62	1.6	0	1	292	0.00	30.376 
04:35	12.1	12.1	12.1	62	1.6	0	1	292	0.00	30.376 
04:40	11.9	11.9	11.9	62	1.4	0	2	292	0.00	30.376 
04:45	11.9	11.9	11.9	62	1.4	0	2	292	0.00	30.373 
04:50	11.9	11.9	11.9	63	1.8	0	1	292	0.00	30.373 
04:55	11.9	11.9	11.9	63	1.8	0	2	292	0.00	30.373 
05:00	11.9	11.9	11.9	63	1.8	0	2	292	0.00	30.371 
05:05	11.9	11.9	11.9	63	1.8	0	2	292	0.00	30.371 
05:10	11.9	11.9	11.9	63	1.8	0	1	292	0.00	30.371 
05:15	11.7	11.7	11.7	62	1.2	0	2	292	0.00	30.374 
05:20	11.7	11.7	11.7	63	1.6	0	1	292	0.00	30.374 
05:25	11.7	11.7	11.7	63	1.6	0	1	292	0.00	30.374 
05:30	11.7	11.7	11.7	63	1.6	0	1	292	0.00	30.374 
05:35	11.7	11.7	11.7	63	1.6	0	1	292	0.00	30.374 
05:40	11.7	11.7	11.7	63	1.6	0	1	292	0.00	30.374 
05:45	11.9	11.9	11.9	64	2.1	0	0	---	0.00	30.376 
05:50	11.9	11.9	11.9	64	2.1	0	0	---	0.00	30.376 
05:55	11.9	11.9	11.9	64	2.1	0	1	292	0.00	30.376 
06:00	11.7	11.7	11.7	64	1.9	0	1	292	0.00	30.377 
06:05	11.7	11.7	11.7	63	1.6	0	1	292	0.00	30.377 
06:10	11.7	11.7	11.7	63	1.6	0	1	292	0.00	30.377 
06:15	11.7	11.7	11.7	63	1.6	0	1	292	0.00	30.382 
06:20	11.7	11.7	11.7	63	1.6	0	1	292	0.00	30.382 
06:25	11.6	11.6	11.6	63	1.5	0	2	292	0.00	30.382 
06:30	11.4	11.4	11.4	63	1.3	0	2	292	0.00	30.380 
06:35	11.2	11.2	11.2	63	1.1	0	1	292	0.00	30.380 
06:40	11.1	11.1	11.1	63	1.0	0	2	292	0.00	30.380 
06:45	10.9	10.9	10.9	64	1.1	0	1	292	0.00	30.380 
06:50	10.7	10.7	10.7	64	1.0	0	0	---	0.00	30.380 
06:55	10.5	10.5	10.5	64	0.8	0	1	292	0.00	30.380 
07:00	10.4	10.4	10.4	65	1.0	0	0	---	0.00	30.381 
07:05	10.4	10.4	10.4	65	1.0	0	0	---	0.00	30.381 
07:10	10.2	10.2	10.2	65	0.8	0	1	292	0.00	30.381 
07:15	10.0	10.0	10.0	66	0.9	0	1	292	0.00	30.385 
07:20	9.9	9.9	9.9	67	1.2	0	0	---	0.00	30.385 
07:25	9.7	9.7	9.7	67	1.0	0	0	---	0.00	30.385 
07:30	9.5	9.5	9.5	68	1.1	0	0	---	0.00	30.384 
07:35	9.3	9.3	9.3	69	1.2	0	0	---	0.00	30.384 
07:40	9.2	9.2	9.2	69	1.1	0	0	---	0.00	30.384 
07:45	9.0	9.0	9.0	70	1.2	0	0	---	0.00	30.382 
07:50	9.0	9.0	9.0	70	1.2	0	0	---	0.00	30.382 
07:55	9.2	9.2	9.2	71	1.7	0	1	292	0.00	30.382 
08:00	9.3	9.3	9.3	72	2.1	0	1	292	0.00	30.383 
08:05	9.5	9.5	9.5	72	2.3	0	0	---	0.00	30.383 
08:10	9.7	9.7	9.7	72	2.5	0	1	292	0.00	30.383 
08:15	9.9	9.9	9.9	72	2.7	0	0	---	0.00	30.384 
08:20	10.0	10.0	10.0	71	2.5	0	1	292	0.00	30.384 
08:25	10.4	10.4	10.4	70	2.6	0	1	292	0.00	30.384 
08:30	10.7	10.7	10.7	69	2.6	0	1	292	0.00	30.383 
08:35	10.9	10.9	10.9	69	2.8	0	1	292	0.00	30.383 
08:40	11.1	11.1	11.1	68	2.6	0	1	292	0.00	30.383 
08:45	11.1	11.1	11.1	68	2.6	0	1	292	0.00	30.381 
08:50	11.6	11.6	11.6	67	2.8	0	1	292	0.00	30.381 
08:55	11.9	11.9	11.9	67	3.1	0	3	315	0.00	30.381 
09:00	12.6	12.6	12.6	66	3.4	0	2	315	0.00	30.371 
09:05	12.9	12.9	12.9	66	3.7	0	2	338	0.00	30.371 
09:10	13.3	13.3	13.3	65	3.8	0	2	338	0.00	30.371 
09:15	13.5	13.5	13.5	66	4.3	0	2	338	0.00	30.372 
09:20	13.6	13.6	13.6	66	4.4	0	3	338	0.00	30.372 
09:25	13.8	13.8	13.8	67	4.9	0	2	90	0.00	30.372 
09:30	13.8	13.8	13.8	67	4.9	0	2	90	0.00	30.359 
09:35	14.0	14.0	14.0	68	5.4	0	2	90	0.00	30.359 
09:40	14.3	14.3	14.3	68	5.7	0	3	90	0.00	30.359 
09:45	14.3	14.3	14.3	68	5.7	0	2	90	0.00	30.358 
09:50	14.3	14.3	14.3	69	6.0	0	3	90	0.00	30.358 
09:55	15.1	15.1	15.1	69	6.8	0	2	90	0.00	30.358 
10:00	15.6	15.6	15.6	69	7.3	0	3	90	0.00	30.357 
10:05	15.9	15.9	15.9	68	7.2	0	3	90	0.00	30.357 
10:10	16.2	16.2	16.2	68	7.5	0	2	90	0.00	30.357 
10:15	16.9	16.9	16.9	66	7.5	0	2	90	0.00	30.353 
10:20	17.5	17.5	17.5	65	7.8	0	1	90	0.00	30.353 
10:25	17.7	17.7	17.7	64	7.6	0	2	90	0.00	30.353 
10:30	17.7	17.7	17.7	63	7.3	0	2	90	0.00	30.348 
10:35	17.7	17.7	17.7	62	6.9	0	2	90	0.00	30.348 
10:40	17.8	17.8	17.8	63	7.4	0	1	90	0.00	30.348 
10:45	18.3	18.3	18.3	61	7.1	0	3	90	0.00	30.339 
10:50	18.3	18.3	18.3	59	6.4	1	4	90	0.00	30.339 
10:55	18.3	18.3	18.3	60	6.8	1	4	90	0.00	30.339 
11:00	18.0	18.0	18.0	60	6.5	0	2	90	0.00	30.327 
11:05	18.0	18.0	18.0	60	6.5	1	4	112	0.00	30.327 
11:10	18.0	18.0	18.0	59	6.1	1	5	68	0.00	30.327 
11:15	18.1	18.1	18.1	60	6.6	1	6	90	0.00	30.322 
11:20	18.3	18.3	18.3	60	6.8	1	2	315	0.00	30.322 
11:25	18.4	18.4	18.4	58	6.1	1	5	248	0.00	30.322 
11:30	18.4	18.4	18.4	58	6.1	1	4	248	0.00	30.320 
11:35	18.6	18.6	18.6	58	6.3	1	5	68	0.00	30.320 
11:40	18.6	18.6	18.6	58	6.3	1	3	270	0.00	30.320 
11:45	18.8	18.8	18.8	58	6.5	1	5	270	0.00	30.308 
11:50	19.2	19.2	19.2	58	6.9	1	4	292	0.00	30.308 
11:55	19.2	19.2	19.2	57	6.5	1	5	112	0.00	30.308 
12:00	19.4	19.4	19.4	57	6.7	1	2	248	0.00	30.304 
12:05	19.7	19.7	19.7	58	7.3	1	5	248	0.00	30.304 
12:10	20.2	20.2	20.2	58	7.8	1	3	112	0.00	30.304 
12:15	19.9	19.9	19.9	57	7.2	2	7	248	0.00	30.294 
12:20	19.7	19.7	19.7	58	7.3	1	4	248	0.00	30.294 
12:25	19.7	19.7	19.7	59	7.7	1	5	248	0.00	30.294 
12:30	20.0	20.0	20.0	60	8.4	0	3	112	0.00	30.288 
12:35	20.3	20.3	20.3	57	7.5	2	5	248	0.00	30.288 
12:40	20.5	20.5	20.5	57	7.7	1	6	248	0.00	30.288 
12:45	20.8	20.8	20.8	56	7.6	1	3	248	0.00	30.273 
12:50	20.8	20.8	20.8	55	7.2	1	5	248	0.00	30.273 
12:55	20.5	20.5	20.5	56	7.3	1	6	248	0.00	30.273 
13:00	20.6	20.6	20.6	56	7.4	1	5	248	0.00	30.259 
13:05	20.8	20.8	20.8	56	7.6	1	4	248	0.00	30.259 
13:10	21.3	21.3	21.3	55	7.7	1	4	292	0.00	30.259 
13:15	21.4	21.4	21.4	55	7.8	0	3	270	0.00	30.243 
13:20	21.6	21.6	21.6	53	7.1	1	4	248	0.00	30.243 
13:25	21.8	21.8	21.8	54	7.7	1	5	248	0.00	30.243 
13:30	22.1	22.1	22.1	53	7.6	1	6	248	0.00	30.239 
13:35	22.4	22.4	22.4	53	7.9	1	4	248	0.00	30.239 
13:40	22.7	22.7	22.7	51	7.3	1	4	248	0.00	30.239 
13:45	22.9	22.9	22.9	51	7.5	0	3	248	0.00	30.225 
13:50	23.2	23.2	23.2	51	7.8	1	4	248	0.00	30.225 
13:55	23.3	23.3	23.3	50	7.4	1	6	248	0.00	30.225 
14:00	23.2	23.2	23.2	49	6.9	2	7	248	0.00	30.211 
14:05	23.2	23.2	23.2	50	7.4	1	4	248	0.00	30.211 
14:10	23.3	23.3	23.3	50	7.4	2	5	270	0.00	30.211 
14:15	23.6	23.6	23.6	49	7.3	2	7	248	0.00	30.205 
14:20	23.5	23.5	23.5	49	7.2	2	6	248	0.00	30.205 
14:25	23.5	23.5	23.5	50	7.6	1	4	270	0.00	30.205 
14:30	23.6	23.6	23.6	51	8.2	0	2	270	0.00	30.191 
14:35	23.9	23.9	23.9	50	8.0	1	4	248	0.00	30.191 
14:40	23.9	23.9	23.9	51	8.4	1	5	248	0.00	30.191 
14:45	23.8	23.8	23.8	52	8.8	1	4	248	0.00	30.178 
14:50	23.8	23.8	23.8	51	8.3	1	5	248	0.00	30.178 
14:55	24.1	24.1	24.1	52	9.1	1	3	248	0.00	30.178 
15:00	23.9	23.9	23.9	51	8.4	1	5	248	0.00	30.166 
15:05	23.9	23.9	23.9	51	8.4	2	7	248	0.00	30.166 
15:10	23.9	23.9	23.9	52	8.9	1	4	248	0.00	30.166 
15:15	24.1	24.1	24.1	52	9.1	1	4	248	0.00	30.161 
15:20	24.2	24.2	24.2	51	8.7	1	9	248	0.00	30.161 
15:25	24.1	24.1	24.1	51	8.6	2	8	248	0.00	30.161 
15:30	23.9	23.9	23.9	52	8.9	2	7	248	0.00	30.159 
15:35	23.9	23.9	23.9	53	9.3	1	7	248	0.00	30.159 
15:40	24.1	24.1	24.1	52	9.1	1	6	248	0.00	30.159 
15:45	24.1	24.1	24.1	52	9.1	1	5	248	0.00	30.145 
15:50	24.1	24.1	24.1	51	8.6	1	5	270	0.00	30.145 
15:55	24.1	24.1	24.1	52	9.1	1	4	248	0.00	30.145 
16:00	24.2	24.2	24.2	52	9.1	1	4	248	0.00	30.131 
16:05	24.4	24.4	24.4	52	9.3	1	5	248	0.00	30.131 
16:10	24.4	24.4	24.4	52	9.3	1	4	248	0.00	30.131 
16:15	24.5	24.5	24.5	52	9.4	0	4	248	0.00	30.127 
16:20	24.7	24.7	24.7	52	9.6	1	4	248	0.00	30.127 
16:25	24.5	24.5	24.5	51	9.0	2	7	248	0.00	30.127 
16:30	24.5	24.5	24.5	52	9.4	1	4	248	0.00	30.118 
16:35	24.5	24.5	24.5	52	9.4	1	4	248	0.00	30.118 
16:40	24.7	24.7	24.7	51	9.2	1	4	248	0.00	30.118 
16:45	24.7	24.7	24.7	52	9.6	1	5	248	0.00	30.112 
16:50	24.7	24.7	24.7	52	9.6	0	3	248	0.00	30.112 
16:55	24.7	24.7	24.7	52	9.6	0	4	248	0.00	30.112 
17:00	24.7	24.7	24.7	52	9.6	1	5	248	0.00	30.103 
17:05	24.7	24.7	24.7	52	9.6	1	6	248	0.00	30.103 
17:10	24.8	24.8	24.8	52	9.7	1	5	248	0.00	30.103 
17:15	24.8	24.8	24.8	51	9.3	2	5	248	0.00	30.102 
17:20	24.8	24.8	24.8	51	9.3	1	6	248	0.00	30.102 
17:25	24.8	24.8	24.8	52	9.7	0	3	248	0.00	30.102 
17:30	24.8	24.8	24.8	52	9.7	1	4	248	0.00	30.085 
17:35	24.8	24.8	24.8	52	9.7	2	5	248	0.00	30.085 
17:40	24.8	24.8	24.8	53	10.1	1	4	248	0.00	30.085 
17:45	24.8	24.8	24.8	53	10.1	1	5	248	0.00	30.083 
17:50	24.8	24.8	24.8	54	10.5	1	10	270	0.00	30.083 
17:55	24.8	24.8	24.8	54	10.5	0	2	270	0.00	30.083 
18:00	24.8	24.8	24.8	54	10.5	1	4	248	0.00	30.081 
18:05	25.0	25.0	25.0	54	10.7	1	5	248	0.00	30.081 
18:10	25.0	25.0	25.0	54	10.7	2	7	248	0.00	30.081 
18:15	25.0	25.0	25.0	54	10.7	1	5	248	0.00	30.079 
18:20	25.0	25.0	25.0	54	10.7	1	3	248	0.00	30.079 
18:25	25.0	25.0	25.0	54	10.7	1	4	248	0.00	30.079 
18:30	25.0	25.0	25.0	55	11.1	1	3	248	0.00	30.073 
18:35	25.0	25.0	25.0	54	10.7	1	6	248	0.00	30.073 
18:40	25.0	25.0	25.0	54	10.7	1	5	248	0.00	30.073 
18:45	25.0	25.0	25.0	54	10.7	1	6	248	0.00	30.069 
18:50	25.0	25.0	25.0	54	10.7	0	3	248	0.00	30.069 
18:55	25.0	25.0	25.0	54	10.7	1	6	248	0.00	30.069 
19:00	25.0	25.0	25.0	54	10.7	1	6	248	0.00	30.056 
19:05	25.0	25.0	25.0	55	11.1	1	4	248	0.00	30.056 
19:10	25.0	25.0	25.0	55	11.1	1	4	248	0.00	30.056 
19:15	25.0	25.0	25.0	56	11.5	1	6	248	0.00	30.057 
19:20	25.0	25.0	25.0	57	11.9	1	4	248	0.00	30.057 
19:25	24.8	24.8	24.8	58	12.1	2	6	248	0.00	30.057 
19:30	24.7	24.7	24.7	60	12.8	2	7	248	0.00	30.061 
19:35	24.5	24.5	24.5	62	13.4	1	4	248	0.00	30.061 
19:40	24.4	24.4	24.4	65	14.3	2	5	248	0.00	30.061 
19:45	24.1	24.1	24.1	67	14.8	1	5	248	0.00	30.055 
19:50	23.9	23.9	23.9	69	15.2	1	4	248	0.00	30.055 
19:55	23.8	23.8	23.8	69	15.1	1	5	248	0.00	30.055 
20:00	23.8	23.8	23.8	69	15.1	1	5	248	0.00	30.053 
20:05	23.9	23.9	23.9	69	15.2	1	5	248	0.00	30.053 
20:10	23.9	23.9	23.9	69	15.2	0	2	270	0.00	30.053 
20:15	23.9	23.9	23.9	67	14.6	1	5	270	0.00	30.043 
20:20	24.1	24.1	24.1	66	14.4	1	4	248	0.00	30.043 
20:25	24.2	24.2	24.2	65	14.2	1	5	270	0.00	30.043 
20:30	24.2	24.2	24.2	64	13.8	0	3	248	0.00	30.035 
20:35	24.4	24.4	24.4	64	14.0	1	3	248	0.00	30.035 
20:40	24.5	24.5	24.5	63	13.7	1	5	248	0.00	30.035 
20:45	24.5	24.5	24.5	62	13.4	0	3	248	0.00	30.027 
20:50	24.7	24.7	24.7	60	12.8	0	3	248	0.00	30.027 
20:55	24.8	24.8	24.8	58	12.1	2	4	248	0.00	30.027 
21:00	25.0	25.0	25.0	57	11.9	1	6	248	0.00	30.017 
21:05	25.1	25.1	25.1	54	10.8	2	7	248	0.00	30.017 
21:10	25.3	25.3	25.3	53	10.6	3	11	248	0.00	30.017 
21:15	25.4	25.4	25.4	51	9.8	3	7	248	0.00	30.014 
21:20	25.4	25.4	25.4	52	10.3	2	6	248	0.00	30.014 
21:25	25.4	25.4	25.4	51	9.8	1	9	225	0.00	30.014 
21:30	25.4	25.4	25.4	52	10.3	1	3	248	0.00	30.015 
21:35	25.4	25.4	25.4	51	9.8	2	5	248	0.00	30.015 
21:40	25.4	25.4	25.4	51	9.8	1	4	248	0.00	30.015 
21:45	25.4	25.4	25.4	51	9.8	2	6	248	0.00	30.006 
21:50	25.4	25.4	25.4	52	10.3	2	5	248	0.00	30.006 
21:55	25.4	25.4	25.4	52	10.3	2	10	248	0.00	30.006 
22:00	25.4	25.4	25.4	52	10.3	2	6	270	0.00	30.005 
22:05	25.4	25.4	25.4	53	10.7	2	7	270	0.00	30.005 
22:10	25.6	25.6	25.6	54	11.3	1	5	248	0.00	30.005 
22:15	25.6	25.6	25.6	54	11.3	2	6	248	0.00	30.001 
22:20	25.6	25.6	25.6	54	11.3	1	7	248	0.00	30.001 
22:25	25.6	25.6	25.6	54	11.3	2	5	248	0.00	30.001 
22:30	25.6	25.6	25.6	55	11.7	2	6	248	0.00	29.996 
22:35	25.6	25.6	25.6	55	11.7	1	4	248	0.00	29.996 
22:40	25.6	25.6	25.6	56	12.1	2	7	248	0.00	29.996 
22:45	25.6	25.6	25.6	56	12.1	2	9	248	0.00	29.986 
22:50	25.7	25.7	25.7	57	12.6	2	5	248	0.00	29.986 
22:55	25.7	25.7	25.7	57	12.6	2	6	248	0.00	29.986 
23:00	25.7	25.7	25.7	57	12.6	2	6	248	0.00	29.979 
23:05	25.7	25.7	25.7	58	13.0	2	6	248	0.00	29.979 
23:10	25.7	25.7	25.7	58	13.0	2	10	248	0.00	29.979 
23:15	25.7	25.7	25.7	58	13.0	3	7	248	0.00	29.965 
23:20	25.8	25.8	25.8	59	13.5	2	10	270	0.00	29.965 
23:25	25.8	25.8	25.8	60	13.9	2	6	270	0.00	29.965 
23:30	25.8	25.8	25.8	60	13.9	1	6	248	0.00	29.949 
23:35	25.8	25.8	25.8	60	13.9	2	6	248	0.00	29.949 
23:40	25.8	25.8	25.8	61	14.2	1	4	248	0.00	29.949 
23:45	25.8	25.8	25.8	61	14.2	1	5	248	0.00	29.941 
23:50	26.0	26.0	26.0	61	14.4	0	2	248	0.00	29.941 
23:55	26.0	26.0	26.0	62	14.8	2	6	248	0.00	29.941 

CoCoRaHS
IN-AL-39
A2 Web Hosting
Creative Commons License
GoDaddy
search engine by freefind advanced

loaded 2018-11-19 10:42:38 • last modified 2010-11-18 10:43:29
Privacy PolicyDisclaimer
• wx.awcolley.com is powered by PmWiki v.2002016 •
• all content (unless otherwise noted) © 2018 A W Colley